When you browse on this site, cookies collect data to enhance your experience and personalize the content and advertising you see.
Visit our Privacy Policy to learn more. By continuing to use the site, you agree to this use of cookies and data.
  • In Lithuania
  • List of Countries
  • For 7 days
  • Water Temperature
  • Satellite Maps
  • Weather Map
  • Weather Widgets
  • user-avatar
    Login

    Hourly Weather Franceville

    Today, 22 April, Monday

    Time Temperature Precipitation Wind Pressure Humidity
    00:00 +25°C° 0 mm 1 mps 730 mmHg 94%
    01:00 +23°C° 0 mm 0 mps 730 mmHg 94%
    02:00 +22°C° 0 mm 0 mps 730 mmHg 94%
    03:00 +22°C° 0 mm 0 mps 730 mmHg 93%
    04:00 +22°C° 0 mm 0 mps 729 mmHg 93%
    05:00 +23°C° 0 mm 0 mps 730 mmHg 92%
    06:00 +23°C° 0 mm 0 mps 730 mmHg 90%
    07:00 +23°C° 0 mm 0 mps 730 mmHg 88%
    08:00 +26°C° 0 mm 0 mps 731 mmHg 77%
    09:00 +30°C° 0 mm 1 mps 731 mmHg 66%
    10:00 +32°C° 0 mm 1 mps 731 mmHg 55%
    11:00 +34°C° 0 mm 1 mps 731 mmHg 49%
    12:00 +37°C° 0 mm 1 mps 730 mmHg 42%
    13:00 +36°C° 0 mm 0 mps 730 mmHg 39%
    14:00 +36°C° 0 mm 0 mps 729 mmHg 39%
    15:00 +35°C° 0 mm 0 mps 729 mmHg 39%
    16:00 +35°C° 0 mm 0 mps 728 mmHg 39%
    17:00 +32°C° 0 mm 0 mps 728 mmHg 46%
    18:00 +30°C° 0 mm 0 mps 728 mmHg 53%
    19:00 +28°C° 0 mm 0 mps 728 mmHg 61%
    20:00 +27°C° 0 mm 0 mps 729 mmHg 63%
    21:00 +27°C° 0 mm 0 mps 729 mmHg 65%
    22:00 +26°C° 0 mm 0 mps 729 mmHg 67%
    23:00 +26°C° 0 mm 0 mps 729 mmHg 69%

    Tomorrow, 23 April, Tuesday

    Time Temperature Precipitation Wind Pressure Humidity
    00:00 +26°C° 0 mm 0 mps 729 mmHg 70%
    01:00 +25°C° 0 mm 0 mps 729 mmHg 72%
    02:00 +25°C° 0 mm 0 mps 729 mmHg 74%
    03:00 +26°C° 0 mm 1 mps 729 mmHg 76%
    04:00 +26°C° 0 mm 1 mps 729 mmHg 78%
    05:00 +24°C° 0 mm 0 mps 729 mmHg 79%
    06:00 +24°C° 0 mm 0 mps 729 mmHg 79%
    07:00 +25°C° 0 mm 0 mps 730 mmHg 80%
    08:00 +27°C° 0 mm 0 mps 730 mmHg 70%
    09:00 +32°C° 0 mm 1 mps 731 mmHg 60%
    10:00 +35°C° 0 mm 1 mps 731 mmHg 50%
    11:00 +35°C° 0 mm 1 mps 731 mmHg 48%
    12:00 +36°C° 0 mm 1 mps 730 mmHg 45%
    13:00 +37°C° 0 mm 1 mps 729 mmHg 42%
    14:00 +36°C° 0 mm 1 mps 729 mmHg 43%
    15:00 +36°C° 0 mm 1 mps 728 mmHg 45%
    16:00 +33°C° 0 mm 0 mps 728 mmHg 47%
    17:00 +32°C° 0 mm 0 mps 728 mmHg 51%
    18:00 +30°C° 0 mm 0 mps 728 mmHg 55%
    19:00 +29°C° 0 mm 0 mps 729 mmHg 59%
    20:00 +29°C° 0 mm 0 mps 729 mmHg 61%
    21:00 +28°C° 0 mm 0 mps 730 mmHg 62%
    22:00 +28°C° 0 mm 0 mps 730 mmHg 63%
    23:00 +27°C° 0.1 mm 0 mps 730 mmHg 68%

    Day after tomorrow, 24 April, Wednesday

    Time Temperature Precipitation Wind Pressure Humidity
    00:00 +26°C° 0.1 mm 0 mps 730 mmHg 72%
    01:00 +26°C° 0.1 mm 0 mps 730 mmHg 77%
    02:00 +25°C° 0.3 mm 0 mps 730 mmHg 81%
    03:00 +25°C° 0.3 mm 0 mps 730 mmHg 84%
    04:00 +24°C° 0.3 mm 0 mps 730 mmHg 88%
    05:00 +24°C° 0 mm 0 mps 730 mmHg 88%
    06:00 +24°C° 0 mm 0 mps 730 mmHg 88%
    07:00 +25°C° 0 mm 0 mps 731 mmHg 88%
    08:00 +29°C° 0 mm 1 mps 731 mmHg 77%
    09:00 +32°C° 0 mm 1 mps 732 mmHg 66%
    10:00 +34°C° 0 mm 1 mps 732 mmHg 55%
    11:00 +36°C° 0 mm 1 mps 731 mmHg 50%
    12:00 +37°C° 0 mm 1 mps 731 mmHg 45%
    13:00 +39°C° 0 mm 1 mps 730 mmHg 39%
    14:00 +39°C° 0 mm 1 mps 729 mmHg 41%
    15:00 +37°C° 0 mm 1 mps 729 mmHg 43%
    16:00 +36°C° 0 mm 1 mps 728 mmHg 45%
    17:00 +35°C° 0 mm 1 mps 728 mmHg 51%
    18:00 +33°C° 0 mm 1 mps 729 mmHg 56%
    19:00 +32°C° 0 mm 1 mps 729 mmHg 61%
    20:00 +31°C° 0 mm 1 mps 730 mmHg 63%
    21:00 +31°C° 0 mm 1 mps 731 mmHg 66%
    22:00 +30°C° 0 mm 2 mps 731 mmHg 68%
    23:00 +29°C° 0.2 mm 1 mps 731 mmHg 74%

    25 April, Thursday

    Time Temperature Precipitation Wind Pressure Humidity
    00:00 +28°C° 0.2 mm 1 mps 731 mmHg 80%
    01:00 +26°C° 0.2 mm 0 mps 731 mmHg 87%
    02:00 +25°C° 0.1 mm 0 mps 730 mmHg 89%
    03:00 +25°C° 0.1 mm 0 mps 730 mmHg 91%
    04:00 +24°C° 0.1 mm 0 mps 730 mmHg 93%
    05:00 +24°C° 0.7 mm 0 mps 730 mmHg 93%
    06:00 +26°C° 0.7 mm 1 mps 731 mmHg 92%
    07:00 +27°C° 0.7 mm 1 mps 732 mmHg 92%
    08:00 +29°C° 0.5 mm 1 mps 732 mmHg 81%
    09:00 +31°C° 0.5 mm 1 mps 732 mmHg 71%
    10:00 +33°C° 0.5 mm 1 mps 732 mmHg 60%
    11:00 +35°C° 0.1 mm 1 mps 732 mmHg 53%
    12:00 +39°C° 0.1 mm 1 mps 731 mmHg 46%
    13:00 +38°C° 0.1 mm 0 mps 730 mmHg 39%
    14:00 +36°C° 0 mm 0 mps 730 mmHg 43%
    15:00 +35°C° 0 mm 0 mps 729 mmHg 46%
    16:00 +34°C° 0 mm 0 mps 728 mmHg 49%
    17:00 +32°C° 0 mm 0 mps 729 mmHg 54%
    18:00 +32°C° 0 mm 1 mps 729 mmHg 59%
    19:00 +31°C° 0 mm 1 mps 730 mmHg 64%
    20:00 +29°C° 0.6 mm 1 mps 730 mmHg 74%
    21:00 +28°C° 0.6 mm 1 mps 730 mmHg 83%
    22:00 +26°C° 0.6 mm 1 mps 730 mmHg 93%
    23:00 +26°C° 0.1 mm 1 mps 730 mmHg 94%

    26 April, Friday

    Time Temperature Precipitation Wind Pressure Humidity
    00:00 +24°C° 0.1 mm 0 mps 730 mmHg 95%
    01:00 +24°C° 0.1 mm 0 mps 730 mmHg 96%
    02:00 +24°C° 0 mm 0 mps 729 mmHg 96%
    03:00 +24°C° 0 mm 0 mps 729 mmHg 96%
    04:00 +23°C° 0 mm 0 mps 729 mmHg 97%
    05:00 +24°C° 0 mm 0 mps 730 mmHg 96%
    06:00 +24°C° 0 mm 0 mps 730 mmHg 95%
    07:00 +24°C° 0 mm 0 mps 731 mmHg 94%
    08:00 +27°C° 0.1 mm 0 mps 731 mmHg 84%
    09:00 +31°C° 0.1 mm 1 mps 732 mmHg 73%
    10:00 +33°C° 0.1 mm 1 mps 732 mmHg 63%
    11:00 +35°C° 0.1 mm 1 mps 731 mmHg 56%
    12:00 +37°C° 0.1 mm 1 mps 730 mmHg 49%
    13:00 +36°C° 0.1 mm 0 mps 730 mmHg 42%
    14:00 +36°C° 0 mm 0 mps 729 mmHg 42%
    15:00 +35°C° 0 mm 0 mps 728 mmHg 42%
    16:00 +35°C° 0 mm 0 mps 728 mmHg 42%
    17:00 +33°C° 0 mm 0 mps 728 mmHg 49%
    18:00 +31°C° 0 mm 0 mps 729 mmHg 56%
    19:00 +29°C° 0 mm 0 mps 729 mmHg 63%
    20:00 +28°C° 0.5 mm 0 mps 729 mmHg 71%
    21:00 +27°C° 0.5 mm 0 mps 730 mmHg 79%
    22:00 +26°C° 0.5 mm 0 mps 730 mmHg 86%
    23:00 +26°C° 0.1 mm 0 mps 730 mmHg 88%

    27 April, Saturday

    Time Temperature Precipitation Wind Pressure Humidity
    00:00 +26°C° 0.1 mm 0 mps 729 mmHg 89%
    01:00 +25°C° 0.1 mm 0 mps 729 mmHg 90%
    02:00 +25°C° 0.3 mm 0 mps 729 mmHg 91%
    03:00 +25°C° 0.3 mm 0 mps 729 mmHg 92%
    04:00 +25°C° 0.3 mm 0 mps 729 mmHg 94%
    05:00 +25°C° 0 mm 0 mps 729 mmHg 94%
    06:00 +25°C° 0 mm 0 mps 730 mmHg 93%
    07:00 +27°C° 0 mm 1 mps 731 mmHg 93%
    08:00 +29°C° 0 mm 1 mps 731 mmHg 85%
    09:00 +30°C° 0 mm 1 mps 732 mmHg 76%
    10:00 +32°C° 0 mm 1 mps 732 mmHg 67%
    11:00 +33°C° 0 mm 1 mps 731 mmHg 61%
    12:00 +35°C° 0 mm 1 mps 730 mmHg 56%
    13:00 +36°C° 0 mm 1 mps 729 mmHg 50%
    14:00 +35°C° 0.3 mm 1 mps 729 mmHg 51%
    15:00 +35°C° 0.3 mm 1 mps 729 mmHg 53%
    16:00 +33°C° 0.3 mm 0 mps 728 mmHg 54%
    17:00 +33°C° 1.1 mm 1 mps 729 mmHg 66%
    18:00 +30°C° 1.1 mm 1 mps 729 mmHg 78%
    19:00 +28°C° 1.1 mm 1 mps 730 mmHg 89%
    20:00 +27°C° 0.1 mm 1 mps 730 mmHg 90%
    21:00 +25°C° 0.1 mm 0 mps 730 mmHg 91%
    22:00 +25°C° 0.1 mm 0 mps 730 mmHg 92%
    23:00 +25°C° 0 mm 0 mps 730 mmHg 93%
    Show more